Spirit of St Louis, MO

5:48 AM CST on November 21, 2019 (GMT -0600)
Spirit Of Saint Louis

Weather History for KSUS - October, 2019

Change the Weather History Date:

Wednesday, October 23, 2019

  Actual Average Record
Temperature  
Mean Temperature 57 °F -  
Max Temperature 75 °F 64 °F 84 °F (2010)
Min Temperature 39 °F 41 °F 28 °F (2006)
Degree Days  
Heating Degree Days 8    
Growing Degree Days 7 (Base 50)    
Moisture  
Dew Point 37 °F    
Average Humidity 49    
Maximum Humidity 86    
Minimum Humidity 23    
Precipitation  
Precipitation 0.00 in - - ()
Sea Level Pressure  
Sea Level Pressure 29.98 in    
Wind  
Wind Speed 5 mph (SW)    
Max Wind Speed 18 mph    
Max Gust Speed 26 mph    
Visibility 10 miles    
Events      
Averages and records for this station are not official NWS values.
T = Trace of Precipitation, MM = Missing Value Source: NWS Daily Summary

Daily Weather History Graph

Daily Weather History Graph

Search for Another Location

Airport or City:

Astronomy

Oct. 23, 2019 Rise Set
Actual Time 7:19 AM CDT 6:13 PM CDT
Civil Twilight 6:52 AM CDT 6:40 PM CDT
Nautical Twilight 6:21 AM CDT 7:11 PM CDT
Astronomical Twilight 5:50 AM CDT 7:42 PM CDT
Moon 1:43 AM CDT (10/23) 3:59 PM CDT (10/23)
Length of Visible Light 11h 48m
Length of Day
10h 53m
Waning Crescent, 26% of the Moon is Illuminated
Oct 23
Waning Crescent
Oct 27
New
Nov 4
First Quarter
Nov 12
Full
Nov 19
Last Quarter

Hourly Weather History & Observations

Time (CDT) Temp. Windchill Dew Point Humidity Pressure Visibility Wind Dir Wind Speed Gust Speed Precip Events Conditions
12:54 AM 41.0 °F - 33.1 °F 73% 30.00 in 10.0 mi Calm Calm - N/A   Clear
1:54 AM 39.0 °F - 35.1 °F 86% 29.99 in 10.0 mi Calm Calm - N/A   Clear
2:54 AM 41.0 °F 38.0 °F 34.0 °F 76% 29.99 in 10.0 mi Variable 4.6 mph - N/A   Clear
4:54 AM 39.9 °F 37.8 °F 34.0 °F 79% 29.99 in 10.0 mi NNW 3.5 mph - N/A   Clear
5:54 AM 42.1 °F 40.2 °F 35.1 °F 76% 30.00 in 10.0 mi West 3.5 mph - N/A   Clear
6:54 AM 39.0 °F - 35.1 °F 86% 30.02 in 10.0 mi Calm Calm - N/A   Clear
7:54 AM 42.1 °F - 37.0 °F 82% 30.03 in 10.0 mi Calm Calm - N/A   Mostly Cloudy
8:54 AM 51.1 °F - 36.0 °F 56% 30.03 in 10.0 mi SW 6.9 mph - N/A   Clear
9:54 AM 55.0 °F - 37.0 °F 51% 30.03 in 10.0 mi SW 8.1 mph - N/A   Clear
10:54 AM 63.0 °F - 37.9 °F 40% 30.02 in 10.0 mi SW 9.2 mph 19.6 mph N/A   Clear
11:54 AM 69.1 °F - 37.0 °F 31% 29.99 in 10.0 mi SW 9.2 mph 26.5 mph N/A   Clear
12:54 PM 71.1 °F - 36.0 °F 28% 29.95 in 10.0 mi SSW 13.8 mph 23.0 mph N/A   Clear
1:54 PM 73.9 °F - 35.1 °F 24% 29.93 in 10.0 mi SW 18.4 mph 26.5 mph N/A   Clear
2:54 PM 75.0 °F - 36.0 °F 24% 29.91 in 10.0 mi SSW 9.2 mph - N/A   Partly Cloudy
3:54 PM 75.9 °F - 36.0 °F 23% 29.89 in 10.0 mi SSW 15.0 mph 24.2 mph N/A   Clear
4:54 PM 73.9 °F - 36.0 °F 25% 29.90 in 10.0 mi SSW 9.2 mph 19.6 mph N/A   Scattered Clouds
5:54 PM 71.1 °F - 37.0 °F 29% 29.91 in 10.0 mi SSW 9.2 mph - N/A   Clear
6:54 PM 68.0 °F - 37.9 °F 33% 29.94 in 10.0 mi SSW 6.9 mph - N/A   Clear
7:54 PM 66.0 °F - 39.0 °F 37% 29.97 in 10.0 mi South 6.9 mph - N/A   Overcast
8:54 PM 64.9 °F - 39.9 °F 40% 29.99 in 10.0 mi SSW 11.5 mph 19.6 mph N/A   Partly Cloudy
9:54 PM 64.0 °F - 41.0 °F 43% 30.01 in 10.0 mi SSW 6.9 mph 23.0 mph N/A   Overcast
10:54 PM 63.0 °F - 41.0 °F 45% 30.02 in 10.0 mi SSW 8.1 mph - N/A   Clear
11:54 PM 60.1 °F - 41.0 °F 49% 30.05 in 10.0 mi SSW 9.2 mph - N/A   Partly Cloudy